Location: Rounton
(54.4000°N, 1.3500°W)
Time: 01:40:18
(UTC+00:00)

Transit 4A - Pass Details

Date: 02 December 2021
Orbit: 864 x 981 km, 66.8° (Epoch: 19 January)

Event Time Altitude Azimuth Distance (km) Brightness Sun altitude
Exits shadow 06:28:35 13° 260° (W) 2,512 9.6 -13.0°
Maximum altitude 06:28:39 13° 259° (W) 2,512 9.6 -13.0°
Drops below altitude 10° 06:31:11 10° 235° (SW) 2,711 10.0 -12.7°
Sets 06:35:25 0° 209° (SSW) 3,666 10.9 -12.1°
